Location: Newark
(44.6028°N, 124.0883°W)
Time: 03:55:59
(UTC+00:00)

Vanguard 1 Rocket - Pass Details

Date: 30 October 2019
Orbit: 651 x 4226 km, 34.3° (Epoch: 18 November)

Event Time Altitude Azimuth Distance (km) Brightness Sun altitude
Rises 15:17:52 0° 212° (SSW) 3,787 10.5 3.6°
Reaches altitude 10° 15:20:27 10° 200° (SSW) 3,144 10.2 4.0°
Maximum altitude 15:27:09 29° 142° (SE) 2,780 10.9 5.1°
Drops below altitude 10° 15:38:18 10° 91° (E) 5,365 12.7 6.9°
Sets 15:44:26 0° 83° (E) 7,023 12.9 7.8°
